Regional Weather Roundup
Issued by NWS

Home | Current Version | Previous Version | Graphics & Text | Print | Product List | Glossary On
Versions: 1 2 3 4 5 6 7 8 9 10 11 12 13 14 15 16 17 18 19 20 21 22 23 24 25 26 27 28 29 30 31 32 33 34 35 36 37 38 39 40 41 42 43 44 45 46 47 48 49 50
000
ASUS43 KLOT 300521
RWRIL

ILLINOIS REGIONAL WEATHER ROUNDUP
NATIONAL WEATHER SERVICE CHICAGO/ROMEOVILLE IL
1200 AM CDT THU JUL 30 2015

NOTE: "FAIR" INDICATES FEW OR NO CLOUDS BELOW 12,000 FEET WITH NO
SIGNIFICANT WEATHER AND/OR OBSTRUCTIONS TO VISIBILITY.

* THESE STATIONS ARE NOT UNDER NWS QUALITY CONTROL. THEY ALSO MAY NOT
  REPORT WEATHER SUCH AS PRECIPITATION OR FOG.

ILZ001-002-007-009-015-016-024-300600-
NORTHWEST ILLINOIS

CITY           SKY/WX    TMP DP  RH WIND       PRES   REMARKS
MOLINE         CLEAR     67  60  78 CALM      30.09R
STERLING*      CLEAR     66  61  82 W5        30.06S
SAVANNA*       CLEAR     71  59  64 CALM      30.06S
$$

ILZ003-004-008-010-011-017-018-300600-
NORTH CENTRAL ILLINOIS

CITY           SKY/WX    TMP DP  RH WIND       PRES   REMARKS
ROCKFORD       CLEAR     67  58  72 W6        30.06R
FREEPORT*      CLEAR     67  58  73 SW8       30.07S
ROCHELLE*      CLEAR     61  59  92 CALM      30.06S
DE KALB*       CLEAR     69  58  69 W9        30.06R
PERU*          CLEAR     66  60  79 W9        30.08R
$$

ILZ005-006-012>014-019>023-300600-
NORTHEAST ILLINOIS

CITY           SKY/WX    TMP DP  RH WIND       PRES   REMARKS
CHICAGO-OHARE  CLEAR     72  56  57 W8        30.02R
CHICAGO-MIDWAY CLEAR     76  55  48 W10       30.02R
AURORA         CLEAR     63  57  81 W7        30.05R
LANSING*       CLEAR     69  55  60 W5        30.04R
JOLIET*        CLEAR     70  62  76 W5        30.05R
WAUKEGAN       CLEAR     71  54  54 VRB6      30.00R
DUPAGE AIRPORT CLEAR     68  56  65 W6        30.03S
KANKAKEE*      CLEAR     67  62  85 W5        30.06S
WHEELING       CLEAR     73  54  51 W8        30.02R
MORRIS*        CLEAR     65  60  86 W7        30.04S
ROMEOVILLE*    CLEAR     66  58  74 W7        30.05R
NORTHERLY ISL    N/A     76  55  48 W8          N/A
$$

LMZ740>746-300600-
SOUTHERN LAKE MICHIGAN

STATION/POSITION SKY/WX   TEMP    WIND        PRES    VSBY  WAVE
                          AIR SEA DIR/SP/G                  HT/PER
                          (F)     (DEG/KT/KT) (MB)    (MI)  (FT/S)
HARRISON CRIB              76     280/ 15/ 17   N/A
BURNHAM HARBOR             76     250/  9/ 12   N/A
BURNS HARBOR               75     260/ 12/ 14 1016.6F
MICHIGAN CITY              75     220/ 16/ 18   N/A
MICHIGAN CITY 6N           76 74  260/ 12/ 16   N/A           2/ 4
ST. JOSEPH                 76 74  300/ 14/ 14   N/A           3/ 4
$$

ILZ025>027-034>036-040-047-049-050-058-095>099-300600-
WEST-CENTRAL ILLINOIS

CITY           SKY/WX    TMP DP  RH WIND       PRES   REMARKS
QUINCY         CLEAR     71  61  70 W5        30.14R
GALESBURG*     CLEAR     68  61  78 W5        30.11S
MACOMB*        CLEAR     65  63  91 W5        30.14R
JACKSONVILLE*  CLEAR     67  64  88 W5        30.13R
PITTSFIELD*    CLEAR     68  64  87 W3        30.15R
$$

ILZ028>032-037-038-041>044-048-051>054-059>061-300600-
CENTRAL ILLINOIS

CITY           SKY/WX    TMP DP  RH WIND       PRES   REMARKS
PONTIAC        CLEAR     66  64  91 W6        30.09R
BLOOMINGTON    CLEAR     70  62  75 W8        30.11R
DECATUR        CLEAR     73  58  59 NW8       30.10R
PEORIA         CLEAR     71  61  70 W5        30.10R
LACON*         CLEAR     69  61  76 CALM      30.08R
LINCOLN*       CLEAR     73  60  64 W3        30.10S
SPRINGFIELD    CLEAR     66  61  84 W5        30.11S
TAYLORVILLE    CLEAR     63  61  94 W3        30.11S
$$

ILZ033-039-045-046-055>057-062-063-300600-
EAST-CENTRAL ILLINOIS

CITY           SKY/WX    TMP DP  RH WIND       PRES   REMARKS
CHAMPAIGN      CLEAR     65  61  87 MISG      30.09R
DANVILLE*      PTCLDY    66  61  83 W7        30.05S
RANTOUL*       CLEAR     67  63  85 W6        30.08S
MATTOON        PTCLDY    64  57  78 NW8       30.08S
PARIS*         PTCLDY    64  61  91 W3        30.08R
$$

ILZ079-100>102-300600-
SOUTHWEST ILLINOIS

CITY           SKY/WX    TMP DP  RH WIND       PRES   REMARKS
ALTON          CLEAR     68  60  73 CALM      30.11S
BELLEVILLE     CLEAR     71  62  71 N2        30.10R
CAHOKIA*       CLEAR     73  60  63 CALM      30.11S
SPARTA*        CLEAR     73  65  77 N3        30.11S
$$

ILZ064>066-069>071-074>076-080>082-084>086-088>090-092>094-300600-
SOUTH-CENTRAL ILLINOIS

CITY           SKY/WX    TMP DP  RH WIND       PRES   REMARKS
CARBONDALE     CLEAR     74  67  78 N6        30.09R
CAIRO*         PTCLDY    79  75  89 N6        30.07R HX  82
EFFINGHAM*     CLEAR     68  57  66 W7        30.10S
MARION         PTCLDY    77  70  78 N5        30.09R
MT. VERNON     CLEAR     72  63  73 CALM      30.10S
CENTRALIA*     CLEAR     70  59  66 NW6       30.10S
SALEM*         CLEAR     69  62  78 NW6       30.10S
METROPOLIS*    PTCLDY    79  78  96 N3        30.06S HX  83
$$

ILZ067-068-072-073-078-083-087-091-300600-
SOUTHEAST ILLINOIS

CITY           SKY/WX    TMP DP  RH WIND       PRES   REMARKS
LAWRENCEVILLE  PTCLDY    71  65  81 NW5       30.07R
FLORA*         PTCLDY    70  63  77 NW5       30.09R
FAIRFIELD*     PTCLDY    73  66  77 NW3       30.07R
HARRISBURG*    PTCLDY    77  67  72 N8        30.09R
ROBINSON*      PTCLDY    67  64  93 NW3       30.08R
CARMI*         PTCLDY    75  62  64 CALM      30.07R
$$

ABBREVIATIONS USED IN REMARKS
   TC - TEMPERATURE IN CELSIUS
  WCI - WIND CHILL INDEX
   HX - HEAT INDEX
  VSB - VISIBILITY
$$




USA.gov is the U.S. government's official web portal to all federal, state and local government web resources and services.